CAPE
1 0 0 0 0 1 2 2 1 1 1 2 1 1 1 2 1 1 2 1 1 0 0 0 0 0 0 0 0 0 0 0 0 0 0 0 0 0 0 0 0 311 146 6 0 78 68
0 0 0 1 2 3 1 1 1 1 1 0 1 2 1 0 0 1 0 0 0 0 0 0 0 0 0 0 0 0 0 0 0 0 0 0 0 0 0 0 0 15 36 0 0 0 108
0 1 2 2 3 2 1 1 1 0 1 2 2 1 1 1 1 1 0 0 0 0 0 0 0 0 0 0 0 0 0 0 0 0 0 0 0 0 0 0 0 0 0 25 16 13 156
1 2 1 1 1 1 1 1 1 1 2 1 1 3 1 1 1 1 0 0 0 0 0 0 0 0 0 0 0 0 0 0 0 0 0 0 0 0 0 0 0 0 0 13 207 375 253
1 1 1 1 1 1 1 2 1 1 1 2 2 2 1 1 1 0 0 0 0 0 0 0 0 0 0 0 0 0 0 0 0 0 0 0 0 0 0 0 0 0 48 2 376 601 307
2 0 2 1 1 1 1 1 1 2 1 0 2 2 1 1 1 0 0 0 0 0 0 0 0 0 0 0 0 0 0 0 0 0 0 0 0 0 0 0 0 18 113 2 201 331 291
1 1 1 1 1 1 1 2 2 0 1 2 2 1 0 1 1 0 0 0 0 0 0 0 0 0 0 0 0 0 0 0 0 0 0 0 0 0 0 0 12 18 50 19 207 246 19
1 1 1 2 1 1 2 0 0 0 2 2 2 0 1 0 0 0 0 0 0 0 0 0 0 0 0 0 0 0 0 0 0 0 0 0 0 0 0 0 0 0 1 0 0 0 0
0 1 2 2 1 1 0 0 0 0 2 1 2 0 0 0 0 0 0 0 0 0 0 0 0 0 0 0 0 0 0 0 0 0 0 0 0 0 0 0 0 0 7 0 0 0 0
0 2 1 1 1 0 0 0 0 1 1 1 0 0 0 0 0 0 0 0 0 0 0 0 0 0 0 0 0 0 0 0 0 0 0 0 0 0 0 0 0 0 4 0 0 0 31
0 0 1 2 2 0 0 0 0 0 0 0 0 0 0 0 0 0 0 0 0 0 3 0 0 0 0 0 0 0 0 0 0 0 0 0 0 0 0 0 0 5 0 0 0 0 0
0 0 0 3 1 0 0 0 0 0 0 0 0 0 0 0 0 0 0 0 0 0 0 0 0 0 0 0 0 0 0 0 0 0 0 0 0 0 0 0 0 0 0 0 0 0 0
0 0 0 1 0 0 0 0 0 0 0 0 0 0 0 0 0 0 0 0 0 1 0 0 0 0 0 0 0 0 0 0 0 0 0 0 0 0 0 3 0 0 0 0 0 0 0
0 0 0 1 0 0 0 0 0 0 0 0 0 0 0 0 0 0 0 0 17 0 0 0 0 0 0 0 0 0 0 0 0 0 0 0 0 0 0 0 0 0 0 0 0 0 0
0 0 0 0 0 0 0 0 0 0 0 0 0 0 0 0 0 0 0 7 0 0 0 0 0 0 0 0 0 0 0 0 0 0 0 1 0 0 0 0 0 0 0 0 0 0 0
0 0 0 0 0 0 0 0 0 0 0 0 0 0 0 0 0 0 0 0 0 0 0 0 0 0 0 0 0 0 0 0 0 0 0 0 0 0 0 0 0 0 0 0 0 0 0
0 0 0 0 0 0 0 0 0 0 0 0 0 0 0 0 0 0 16 0 0 0 0 0 0 0 0 0 0 0 0 0 0 0 0 0 0 0 0 0 0 0 0 0 0 0 0
0 0 0 0 0 0 0 0 0 0 0 0 0 0 0 0 5 0 0 0 0 0 0 0 0 0 0 0 0 0 0 0 0 0 0 0 0 0 0 0 0 0 0 0 0 0 0
0 0 0 0 0 0 0 0 0 0 0 0 0 0 0 0 0 0 0 0 0 0 0 0 0 0 0 0 0 0 0 0 0 0 0 0 0 0 0 0 0 0 0 0 0 0 0
0 0 0 0 0 0 0 0 0 0 0 0 0 0 0 0 0 0 0 0 0 0 0 0 0 0 0 0 0 0 0 0 0 0 0 0 0 0 0 0 0 0 0 0 0 0 1
0 0 0 0 0 0 0 0 0 0 0 0 0 0 0 0 0 0 0 0 0 0 0 0 0 0 0 0 0 0 0 0 0 0 0 0 0 0 0 0 0 0 0 0 0 0 0
0 0 0 0 0 0 0 0 0 0 0 0 0 0 0 0 0 0 0 0 0 0 0 0 0 0 0 0 0 0 0 0 0 0 0 0 0 0 0 0 0 0 0 0 0 0 0
1 0 0 0 0 0 0 0 0 0 0 0 0 0 0 0 0 0 0 0 0 0 0 0 0 0 0 0 0 0 0 0 0 0 0 0 0 0 0 0 0 0 0 0 0 0 0
2 0 0 0 0 0 0 0 0 0 0 0 0 0 0 0 0 0 0 0 0 0 0 0 0 0 0 0 0 0 0 0 0 0 0 0 0 0 0 0 0 0 0 0 0 0 0
2 0 0 0 0 0 0 0 0 0 0 0 0 0 0 0 0 0 0 0 0 0 0 0 0 0 0 0 0 0 0 0 0 0 0 0 0 0 0 0 0 0 0 0 0 0 0
2 0 0 0 0 0 0 0 0 0 0 0 0 0 0 0 0 0 0 0 0 0 0 0 0 0 0 0 0 0 0 0 0 0 0 0 0 0 0 0 0 0 0 0 0 0 0
2 0 0 0 0 0 0 0 0 0 0 0 0 0 0 0 0 0 0 0 0 0 0 0 0 0 0 0 7 5 0 0 0 0 0 0 0 0 0 0 0 0 0 0 0 0 0
2 0 0 0 0 0 0 0 0 0 0 0 0 0 0 0 0 0 0 0 0 0 0 0 0 0 0 0 0 0 3 0 0 0 0 0 0 0 0 0 0 0 0 0 0 0 0
1 0 0 0 0 0 0 0 0 0 0 0 0 0 0 0 0 0 0 0 0 0 0 0 0 0 0 0 0 0 0 0 1 1 0 0 0 1 0 2 0 0 0 0 0 0 0
CIN
-2 0 0 0 0 0 0 0 -1 -1 0 0 0 0 0 0 0 0 0 0 0 0 0 0 0 0 0 0 0 0 0 0 0 0 0 0 0 0 0 0 0 -6 -7 -38 0 -18 -20
0 0 0 0 0 0 0 -1 0 0 0 0 0 0 0 0 0 0 0 0 0 0 0 0 0 0 0 0 0 0 0 0 0 0 0 0 0 0 0 0 -10 -52 -61 0 0 0 -36
0 0 0 0 0 0 0 0 0 0 -1 0 0 0 0 0 0 0 0 0 0 0 0 0 0 0 0 0 0 0 0 0 0 0 0 0 0 0 0 0 0 0 0 -47 -75 -80 -46
0 0 0 -1 0 0 0 0 0 0 0 0 0 0 0 0 0 0 0 0 0 0 0 0 0 0 0 0 0 0 0 0 0 0 0 0 0 0 0 0 0 0 0 -2 -16 -13 -43
0 0 -1 0 0 0 0 0 0 0 0 0 0 0 0 0 0 0 0 0 0 0 0 0 0 0 0 0 0 0 0 0 0 0 0 0 0 0 0 0 0 0 -8 -13 -2 -1 -27
0 0 0 0 0 0 0 0 0 0 -1 0 0 0 0 0 0 0 0 0 0 0 0 0 0 0 0 0 0 0 0 0 0 0 0 0 0 0 0 0 0 -30 -3 -3 -2 -4 -4
0 0 -1 0 0 0 0 0 0 0 0 0 0 0 0 0 0 0 0 0 0 0 0 0 0 0 0 0 0 0 0 0 0 0 0 0 0 0 0 0 -11 -2 -5 -3 -1 -7 -18
0 0 0 0 0 0 0 0 0 0 0 0 0 0 0 0 0 0 0 0 0 0 0 0 0 0 0 0 0 0 0 0 0 0 0 0 0 0 0 0 0 0 -2 0 0 0 0
0 0 0 0 0 0 0 0 0 0 0 0 0 0 0 0 0 0 0 0 0 0 0 0 0 0 0 0 0 0 0 0 0 0 0 0 0 0 0 0 0 0 -3 0 0 0 0
0 0 0 0 0 0 0 0 0 0 0 0 0 0 0 0 0 0 0 0 0 0 0 0 0 0 0 0 0 0 0 0 0 0 0 0 0 0 0 0 0 0 -1 0 0 0 -3
0 0 0 0 0 0 0 0 0 0 0 0 0 0 0 0 0 0 0 0 0 0 -4 0 0 0 0 0 0 0 0 0 0 0 0 0 0 0 0 0 0 -3 0 0 0 0 0
0 0 0 0 0 0 0 0 0 0 0 0 0 0 0 0 0 0 0 0 0 0 0 0 0 0 0 0 0 0 0 0 0 0 0 0 0 0 0 0 0 0 0 0 0 0 0
0 0 0 0 0 0 0 0 0 0 0 0 0 0 0 0 0 0 0 0 0 -3 0 0 0 0 0 0 0 0 0 0 0 0 0 0 0 0 0 -2 0 0 0 0 0 0 0
0 0 0 0 0 0 0 0 0 0 0 0 0 0 0 0 0 0 0 0 -3 0 0 0 0 0 0 0 0 0 0 0 0 0 0 0 0 0 0 0 0 0 0 0 0 0 0
0 0 0 0 0 0 0 0 0 0 0 0 0 0 0 0 0 0 0 -10 0 0 0 0 0 0 0 0 0 0 0 0 0 0 0 -2 0 0 0 0 0 0 0 0 0 0 0
0 0 0 0 0 0 0 0 0 0 0 0 0 0 0 0 0 0 0 0 0 0 0 0 0 0 0 0 0 0 0 0 0 0 0 0 0 0 0 0 0 0 0 0 0 0 0
0 0 0 0 0 0 0 0 0 0 0 0 0 0 0 0 0 0 -45 0 0 0 0 0 0 0 0 0 0 0 0 0 0 0 0 0 0 0 0 0 0 0 0 0 0 0 0
0 0 0 0 0 0 0 0 0 0 0 0 0 0 0 0 -68 0 0 0 0 0 0 0 0 0 0 0 0 0 0 0 0 0 0 0 0 0 0 0 0 0 0 0 0 0 0
0 0 0 0 0 0 0 0 0 0 0 0 0 0 0 0 0 0 0 0 0 0 0 0 0 0 0 0 -7 0 0 0 0 0 0 0 0 0 0 0 0 0 0 0 0 0 0
0 0 0 0 0 0 0 0 0 0 0 0 0 0 0 0 0 0 0 0 0 0 0 0 0 0 0 0 0 0 0 0 0 0 0 0 0 0 0 0 0 0 0 0 0 0 -3
0 0 0 0 0 0 0 0 0 0 0 0 0 0 0 0 0 0 0 0 0 0 0 0 0 0 0 0 0 0 0 0 0 0 0 0 0 0 0 0 0 0 0 0 0 0 0
0 0 0 0 0 0 0 0 0 0 0 0 0 0 0 0 0 0 0 0 0 0 0 0 0 0 0 0 0 0 0 0 0 0 0 0 0 0 0 0 0 0 0 0 0 0 0
0 0 0 0 0 0 0 0 0 0 0 0 0 0 0 0 0 0 0 0 0 0 0 0 0 0 0 0 0 0 0 0 0 0 0 0 0 0 0 0 0 0 0 0 0 0 0
0 0 0 0 0 0 0 0 0 0 0 0 0 0 0 0 0 0 0 0 0 0 0 0 0 0 0 0 0 0 0 0 0 0 0 0 0 0 0 0 0 0 0 0 0 0 0
0 0 0 0 0 0 0 0 0 0 0 0 0 0 0 0 0 0 0 0 0 0 0 0 0 0 0 0 0 0 0 0 0 0 0 0 0 0 0 0 0 0 0 0 0 0 0
0 0 0 0 0 0 0 0 0 0 0 0 0 0 0 0 0 0 0 0 0 0 0 0 0 0 0 0 0 0 0 0 0 0 0 0 0 0 0 0 0 0 0 0 0 0 0
0 0 0 0 0 0 0 0 0 0 0 0 0 0 0 0 0 0 0 0 0 0 0 0 0 0 0 0 0 -1 0 0 0 0 0 0 0 0 0 0 0 0 0 0 0 0 0
0 0 0 0 0 0 0 0 0 0 0 0 0 0 0 0 0 0 0 0 0 0 0 0 0 0 0 0 0 0 0 0 0 0 0 0 0 0 0 0 0 0 0 0 0 0 0
0 0 0 0 0 0 0 0 0 0 0 0 0 0 0 0 0 0 0 0 0 0 0 0 0 0 0 0 0 0 0 0 0 0 0 0 0 0 0 -2 0 0 0 0 0 0 0
Wind_Speed
30 29 29 29 29 30 31 32 32 32 31 31 31 31 31 31 30 29 29 28 27 26 24 22 20 17 16 14 16 15 4 6 7 9 10 12 13 16 14 12 10 13 10 12 14 13 14
29 29 29 30 31 32 33 33 33 33 32 31 32 32 31 31 30 29 29 28 27 26 24 21 18 15 16 17 16 8 2 5 8 10 13 16 17 16 14 13 12 11 13 15 16 12 11
29 28 29 31 32 32 33 33 33 33 33 34 33 32 31 30 30 29 29 29 28 26 23 20 15 14 16 16 12 4 3 6 7 12 12 17 19 16 14 13 14 13 13 10 11 7 10
29 28 29 30 32 32 32 32 34 34 35 35 33 32 31 30 29 28 28 28 26 24 17 14 13 14 13 13 6 3 6 7 9 11 14 13 17 17 18 14 14 14 15 11 6 6 8
29 28 29 31 31 32 32 33 34 35 35 34 32 30 30 29 28 26 25 23 19 11 9 9 11 13 8 8 7 4 6 8 8 9 12 14 15 19 15 17 16 16 15 10 8 11 8
27 27 28 29 31 31 32 32 32 32 34 33 31 29 29 28 26 24 20 17 13 8 9 12 16 12 12 10 7 5 8 10 11 10 10 15 17 19 23 24 20 16 14 11 8 9 8
27 27 28 29 30 32 31 30 27 25 35 31 30 28 27 25 24 21 15 14 13 11 14 12 11 16 4 7 4 8 5 8 13 15 17 18 20 23 20 24 21 15 15 10 7 9 12
28 28 29 30 31 32 29 28 28 22 24 22 24 24 23 22 20 16 14 16 17 17 12 17 18 18 15 9 12 10 7 10 15 20 17 18 26 20 19 19 19 17 12 8 8 11 18
28 28 31 32 31 31 27 26 23 22 16 10 16 26 23 21 18 15 16 18 19 14 15 14 14 15 14 15 14 14 14 14 16 19 22 22 21 17 20 20 20 19 15 13 12 14 17
29 30 31 31 29 29 25 24 21 21 15 22 29 25 22 20 16 16 15 19 19 10 11 12 13 13 14 17 13 12 17 13 17 21 20 24 16 19 20 21 22 19 20 15 15 17 17
31 32 32 30 29 29 20 21 22 15 12 12 27 21 19 15 18 16 18 22 13 10 11 10 11 11 11 19 11 17 18 18 18 17 19 21 20 20 20 20 21 20 18 20 19 22 20
31 32 32 30 29 27 15 14 15 14 11 3 12 17 19 17 14 15 18 18 10 9 12 11 13 14 14 13 15 13 18 22 17 17 23 17 20 20 20 18 20 14 17 18 20 22 26
31 32 32 30 29 27 14 8 8 7 4 1 7 17 18 17 19 19 13 12 9 14 11 12 13 17 14 13 12 14 18 19 19 20 20 14 16 17 20 21 21 19 17 20 23 24 24
31 32 32 30 28 31 14 10 13 9 7 4 8 16 18 16 11 14 14 13 13 11 12 15 15 14 12 10 12 15 15 16 15 22 18 19 21 20 20 23 23 24 22 23 25 23 18
30 32 32 31 30 36 18 15 14 16 17 7 13 14 17 24 16 15 13 16 14 15 15 15 18 13 13 13 12 13 15 17 16 18 22 22 19 17 17 19 21 23 29 22 25 24 21
31 32 32 31 31 36 21 21 18 16 15 4 14 13 21 15 13 15 15 16 12 13 15 15 18 21 14 11 12 14 17 17 18 17 18 18 18 20 18 19 20 23 24 26 26 25 26
30 31 30 31 31 35 25 20 17 15 11 14 13 11 20 17 13 13 17 17 10 12 13 14 15 17 14 14 12 14 16 13 16 18 18 19 22 20 20 22 22 22 25 27 26 25 30
29 31 30 30 30 32 26 21 20 17 9 15 14 13 17 16 14 16 15 14 14 13 13 12 12 12 15 15 14 17 15 14 15 16 17 18 21 20 20 19 20 24 23 26 30 27 25
29 30 29 28 30 29 27 24 22 17 10 15 19 19 16 12 16 16 13 13 14 14 14 14 12 12 13 15 16 14 13 13 15 13 15 17 20 21 21 21 22 25 24 25 28 26 28
28 30 28 27 31 29 27 23 22 19 11 16 17 17 21 23 20 17 12 14 12 13 13 11 12 12 12 13 14 15 13 14 13 14 16 17 17 22 23 20 18 22 23 25 28 33 26
28 29 28 27 29 27 25 23 21 20 1 16 18 21 19 20 23 22 15 13 13 13 13 13 14 14 14 14 11 13 14 12 13 15 15 18 20 18 17 17 18 21 22 22 24 26 27
26 26 26 27 29 26 24 22 21 21 8 22 20 20 24 24 20 22 19 16 14 13 15 14 11 13 15 13 18 14 13 16 19 17 17 17 21 21 23 22 22 25 23 22 21 20 19
23 24 26 26 29 26 23 22 22 21 10 23 21 19 18 20 21 21 20 19 18 14 15 14 12 12 11 12 12 12 14 15 15 18 19 20 20 23 25 23 25 31 29 25 21 20 19
22 23 25 25 27 25 22 21 21 20 16 13 20 17 18 20 20 21 23 23 24 21 15 15 14 14 13 11 10 11 12 14 14 16 18 18 21 21 24 22 29 20 19 22 22 19 20
20 21 21 24 25 24 22 20 19 19 15 11 20 16 17 17 19 19 20 21 21 21 22 19 16 14 11 10 11 13 14 15 15 16 16 19 19 21 23 26 21 22 21 20 21 22 21
18 18 18 23 24 23 21 19 18 17 16 10 22 16 14 16 16 17 17 17 16 17 19 19 19 18 12 12 13 17 18 18 17 15 16 16 19 21 20 26 28 17 16 16 17 25 18
20 12 18 22 22 21 20 18 17 17 17 11 18 18 13 14 16 15 15 15 15 15 16 16 16 17 17 14 12 15 17 17 18 18 16 14 18 23 24 25 23 17 14 13 24 21 13
17 8 17 20 19 20 20 18 17 17 18 10 16 19 12 13 14 13 13 14 14 14 14 14 14 14 15 15 14 13 13 16 18 17 16 16 18 19 21 26 29 11 12 18 13 12 14
3 7 15 19 18 19 19 18 18 17 18 17 15 17 15 11 14 12 11 11 11 13 13 12 15 13 13 13 12 12 12 10 13 17 15 18 18 18 18 19 15 9 16 13 17 19 19
Wind_Direction
17 17 16 12 7 2 351 346 345 344 344 342 336 328 318 310 300 294 293 290 287 291 298 301 300 304 295 290 287 302 289 225 184 224 223 230 235 246 253 263 276 277 308 310 303 313 312
26 22 18 13 6 359 353 347 346 346 345 344 336 325 318 312 302 294 292 290 284 281 287 293 299 300 292 278 291 311 262 176 212 220 232 240 245 251 256 259 270 287 293 298 298 312 5
29 28 23 14 8 4 358 353 350 347 343 333 325 321 316 310 303 296 291 289 283 278 283 287 298 293 286 287 290 295 235 233 210 235 233 242 249 247 260 263 269 279 290 320 331 13 12
31 29 25 18 10 7 6 0 351 344 334 325 314 312 314 308 305 302 295 288 286 280 292 293 293 291 297 295 300 263 252 236 246 243 244 252 247 253 253 272 263 268 274 282 333 339 346
31 30 25 19 15 11 6 2 352 346 335 320 310 306 305 305 304 301 301 298 308 314 311 308 295 289 303 285 266 257 244 233 236 245 247 251 245 248 256 248 250 256 260 270 290 291 308
33 30 27 22 17 13 9 5 2 359 346 319 310 303 302 305 308 304 302 308 333 352 311 294 281 288 281 261 247 250 252 239 235 239 240 245 247 245 241 237 241 243 253 257 272 283 286
32 29 25 21 18 13 12 14 16 16 328 312 309 302 301 306 313 309 319 331 339 328 286 297 288 285 245 259 225 249 231 228 240 239 240 238 241 237 237 235 255 245 248 250 265 266 269
30 27 24 21 17 15 18 20 19 23 321 298 298 299 304 308 314 335 354 352 329 309 310 276 270 267 259 240 247 230 207 245 229 232 240 237 239 240 238 241 242 244 237 241 260 270 250
29 26 21 19 19 18 23 24 27 27 32 41 13 332 319 316 342 8 2 346 331 332 298 279 266 257 250 242 246 219 229 250 232 233 235 238 244 240 237 238 238 240 240 246 252 254 250
28 25 21 20 22 21 27 28 31 32 41 31 352 356 358 356 35 17 3 334 326 15 310 282 257 254 241 244 243 218 231 240 242 238 237 243 254 234 234 238 237 236 246 250 249 245 251
26 24 21 23 24 23 32 31 31 37 44 53 13 31 20 39 10 11 350 320 352 354 296 274 245 250 231 238 219 230 230 248 242 239 239 245 237 231 233 237 238 248 243 247 249 247 252
24 23 22 23 24 25 32 30 30 34 40 49 65 51 37 37 41 22 358 334 353 333 299 264 251 231 225 238 240 219 234 245 249 240 241 256 239 236 238 241 239 256 241 244 248 248 248
22 22 21 22 23 25 31 349 352 348 10 240 103 59 54 40 21 359 61 46 24 312 283 249 242 230 230 231 234 220 232 238 241 232 235 240 235 247 247 238 240 240 230 233 240 244 251
21 20 20 21 24 18 28 327 313 312 296 248 96 60 61 63 82 68 72 91 334 300 278 248 241 233 233 228 236 230 233 235 253 245 230 230 235 241 249 242 240 234 233 237 242 238 239
19 18 19 19 19 2 312 316 313 304 298 257 62 64 56 359 65 108 111 338 307 268 263 247 231 234 237 246 239 234 241 249 256 254 242 236 247 249 251 249 247 231 237 258 253 243 246
17 17 18 18 16 344 313 316 313 306 296 103 62 69 22 277 110 118 59 14 336 276 249 243 235 238 237 242 240 245 250 259 256 261 259 251 246 248 251 248 250 245 242 242 247 239 240
15 16 18 17 14 344 316 316 315 309 297 64 73 79 25 282 129 50 41 40 306 292 258 257 254 243 241 249 250 255 258 264 265 260 260 254 253 246 245 247 244 244 242 245 253 255 241
14 14 16 17 15 329 318 316 317 313 305 79 80 79 328 260 69 358 9 350 242 269 259 273 276 258 247 247 248 256 257 271 276 266 256 261 256 242 247 253 254 251 253 247 245 247 254
12 13 16 19 13 324 320 320 320 316 69 83 72 74 28 136 65 26 7 358 335 304 301 272 267 267 258 255 253 253 262 277 280 276 265 264 253 245 248 252 253 249 252 253 253 260 249
11 10 15 19 7 326 322 319 320 319 84 91 89 93 76 63 68 48 353 327 319 316 326 311 280 274 272 273 272 255 257 270 288 280 278 272 264 257 251 253 254 249 253 255 252 250 255
8 9 14 16 8 323 318 321 321 322 225 99 88 80 93 85 72 64 17 324 329 308 319 297 288 287 277 274 281 270 271 269 285 285 279 268 259 263 269 270 265 256 256 258 253 256 254
7 10 13 12 357 319 318 319 324 325 288 75 82 94 87 91 103 87 85 7 338 336 303 312 317 301 285 281 277 273 277 275 272 278 275 276 261 260 263 270 267 259 258 260 260 259 255
6 8 8 9 347 322 314 319 326 332 296 62 90 115 111 95 94 96 92 92 50 351 343 340 318 312 317 305 303 301 294 289 286 276 272 271 265 262 263 265 265 258 255 256 259 259 257
2 5 3 6 341 325 310 314 327 330 326 116 72 115 104 96 93 89 95 94 83 53 27 349 333 310 316 327 332 315 304 297 294 286 280 275 264 268 262 261 256 264 269 260 258 260 262
360 4 14 1 343 325 311 301 316 324 315 328 59 101 104 110 92 95 96 90 91 97 87 43 352 337 346 335 313 298 294 291 292 286 281 271 267 266 262 257 271 266 266 261 252 257 263
2 8 18 359 338 321 308 296 301 310 310 166 22 96 123 99 98 96 101 109 108 102 97 94 92 71 38 328 314 288 284 282 283 290 283 278 271 267 267 261 262 274 273 274 273 261 268
355 29 12 354 350 315 305 298 296 299 303 218 42 31 131 123 97 106 102 95 96 96 93 86 86 87 113 72 348 306 291 291 280 278 279 278 273 265 266 268 276 283 280 278 261 267 277
358 48 4 350 2 311 301 294 292 299 302 212 53 5 100 87 68 108 87 75 75 92 77 63 81 83 93 92 94 53 333 293 289 288 283 279 278 275 273 269 267 284 281 271 285 289 289
146 46 4 348 358 313 299 287 287 294 303 297 58 34 41 117 55 80 104 63 60 42 43 56 14 37 36 48 55 52 63 22 308 290 289 283 284 284 280 284 295 282 291 287 287 288 291